| time (UTC) | temp F | wind direction | speed MPH | gust MPH | rain 1hr in | rain 24hr in | rain mn in | humidity % | barometer mb |
| 20260504081537 | 29 | 0 | 0.0 | 1.0 | 0.00 | 0.00 | 0.00 | 83 | 1005.4 |
| 20260504044532 | 35 | 0 | 0.0 | 2.0 | 0.00 | 0.00 | 0.00 | 74 | 1006.0 |
| 20260504043032 | 35 | 0 | 0.0 | 2.0 | 0.00 | 0.00 | 0.00 | 75 | 1006.2 |
| 20260504041534 | 35 | 0 | 0.0 | 1.0 | 0.00 | 0.00 | 0.00 | 75 | 1006.3 |
| 20260504040042 | 35 | 0 | 0.0 | 2.0 | 0.00 | 0.00 | 0.00 | 74 | 1006.4 |
| 20260504034536 | 35 | 0 | 0.0 | 0.0 | 0.00 | 0.00 | 0.00 | 74 | 1006.3 |
| 20260504033036 | 36 | 0 | 0.0 | 2.0 | 0.00 | 0.00 | 0.00 | 73 | 1006.4 |
| 20260504031530 | 37 | 135 | 0.0 | 2.0 | 0.00 | 0.00 | 0.00 | 74 | 1006.5 |
| 20260504030036 | 37 | 0 | 0.0 | 0.0 | 0.00 | 0.00 | 0.00 | 71 | 1006.4 |
| 20260504024531 | 38 | 0 | 0.0 | 2.0 | 0.00 | 0.00 | 0.00 | 70 | 1006.6 |
| 20260504023033 | 39 | 0 | 0.0 | 2.0 | 0.00 | 0.00 | 0.00 | 69 | 1006.6 |
| 20260504021536 | 39 | 0 | 0.0 | 2.0 | 0.00 | 0.00 | 0.00 | 66 | 1006.8 |
| 20260504020032 | 40 | 0 | 0.0 | 0.0 | 0.00 | 0.00 | 0.00 | 66 | 1006.9 |
| 20260504014530 | 41 | 0 | 0.0 | 0.0 | 0.00 | 0.00 | 0.00 | 64 | 1007.0 |
| 20260504013037 | 42 | 0 | 0.0 | 0.0 | 0.00 | 0.00 | 0.00 | 61 | 1006.9 |
| 20260504011534 | 43 | 0 | 0.0 | 0.0 | 0.00 | 0.00 | 0.00 | 59 | 1006.9 |
| 20260504010030 | 44 | 0 | 0.0 | 2.0 | 0.00 | 0.00 | 0.00 | 58 | 1007.0 |
| 20260504004544 | 45 | 147 | 0.0 | 2.0 | 0.00 | 0.03 | 0.00 | 55 | 1006.8 |
| 20260504003043 | 46 | 0 | 0.0 | 1.0 | 0.00 | 0.03 | 0.00 | 53 | 1006.7 |
| 20260504001541 | 47 | 0 | 0.0 | 2.0 | 0.00 | 0.03 | 0.00 | 54 | 1006.7 |
| 20260504000053 | 48 | 147 | 0.0 | 2.0 | 0.00 | 0.03 | 0.00 | 49 | 1006.7 |
| 20260503234533 | 49 | 0 | 0.0 | 1.0 | 0.00 | 0.03 | 0.00 | 46 | 1006.5 |
| 20260503233030 | 49 | 0 | 0.0 | 2.0 | 0.00 | 0.03 | 0.00 | 43 | 1006.6 |
| 20260503231536 | 50 | 167 | 0.0 | 3.0 | 0.00 | 0.03 | 0.00 | 43 | 1006.4 |
| 20260503230036 | 51 | 144 | 0.0 | 2.0 | 0.00 | 0.03 | 0.00 | 40 | 1006.6 |
| 20260503224533 | 51 | 0 | 0.0 | 1.0 | 0.00 | 0.03 | 0.00 | 41 | 1006.6 |
| 20260503223038 | 51 | 0 | 0.0 | 2.0 | 0.00 | 0.03 | 0.00 | 41 | 1006.4 |
| 20260503221543 | 50 | 0 | 1.0 | 5.0 | 0.00 | 0.03 | 0.00 | 40 | 1006.5 |
| 20260503220037 | 51 | 233 | 1.0 | 3.0 | 0.00 | 0.03 | 0.00 | 41 | 1006.6 |
| 20260503214531 | 52 | 96 | 1.0 | 3.0 | 0.00 | 0.03 | 0.00 | 37 | 1006.5 |
| 20260503213035 | 52 | 0 | 0.0 | 2.0 | 0.00 | 0.03 | 0.00 | 35 | 1006.4 |
| 20260503211536 | 53 | 0 | 0.0 | 3.0 | 0.00 | 0.03 | 0.00 | 37 | 1006.6 |
| 20260503210030 | 53 | 16 | 1.0 | 4.0 | 0.00 | 0.03 | 0.00 | 36 | 1006.5 |
| 20260503204535 | 54 | 115 | 1.0 | 4.0 | 0.00 | 0.03 | 0.00 | 34 | 1006.5 |
| 20260503203049 | 52 | 344 | 2.0 | 8.0 | 0.00 | 0.03 | 0.00 | 37 | 1006.6 |
| 20260503201537 | 53 | 250 | 3.0 | 7.0 | 0.00 | 0.03 | 0.00 | 36 | 1006.7 |
| 20260503200033 | 52 | 325 | 1.0 | 5.0 | 0.00 | 0.03 | 0.00 | 40 | 1006.9 |
| 20260503194532 | 51 | 269 | 2.0 | 9.0 | 0.00 | 0.03 | 0.00 | 39 | 1007.0 |
| 20260503193032 | 49 | 149 | 1.0 | 9.0 | 0.00 | 0.03 | 0.00 | 43 | 1007.3 |
| 20260503191535 | 48 | 277 | 4.0 | 13.0 | 0.00 | 0.03 | 0.00 | 44 | 1007.3 |
| 20260503190039 | 49 | 294 | 2.0 | 8.0 | 0.00 | 0.03 | 0.00 | 43 | 1007.4 |
| 20260503184534 | 50 | 242 | 2.0 | 7.0 | 0.00 | 0.03 | 0.00 | 41 | 1007.5 |
| 20260503183037 | 49 | 266 | 2.0 | 9.0 | 0.00 | 0.03 | 0.00 | 43 | 1007.7 |
| 20260503181536 | 50 | 242 | 4.0 | 12.0 | 0.00 | 0.03 | 0.00 | 42 | 1007.7 |
| 20260503180035 | 50 | 244 | 3.0 | 9.0 | 0.00 | 0.03 | 0.00 | 42 | 1008.0 |
| 20260503174535 | 49 | 71 | 1.0 | 7.0 | 0.00 | 0.03 | 0.00 | 46 | 1008.0 |
| 20260503173046 | 48 | 273 | 2.0 | 7.0 | 0.00 | 0.03 | 0.00 | 45 | 1008.2 |
| 20260503171539 | 47 | 29 | 1.0 | 11.0 | 0.00 | 0.03 | 0.00 | 47 | 1008.4 |